Terminal Aerodrome Forecast
Issued by NWS

Home | Current Version | Previous Version | Text Only | Print | Product List | Glossary On
Versions: 1 2 3 4 5 6 7 8 9 10 11 12 13 14 15 16 17 18 19 20 21 22 23 24 25 26 27
000
FTUS41 KBUF 011100
TAFJHW
TAF
KJHW 011120Z 0112/0212 VRB03KT P6SM OVC008
     FM011400 06004KT 2SM -SN OVC007
     FM011900 08005KT 1SM -SN OVC012
     FM012300 09009KT 1/2SM SN OVC007
     FM021000 05013KT 2SM -SN OVC007
      AMD LTD TO CLD VIS AND WIND=

USA.gov is the U.S. government's official web portal to all federal, state and local government web resources and services.